Location: Hains Lake
(37.8540°N, 99.8578°W)
Time: 16:38:03
(UTC+00:00)

Vanguard 1 - Pass Details

Date: 08 December 2021
Orbit: 652 x 3830 km, 34.2° (Epoch: 22 January)

Event Time Altitude Azimuth Distance (km) Brightness Sun altitude
Exits shadow 09:00:15 68° 131° (SE) 3,687 12.6 -54.8°
Drops below altitude 10° 09:15:00 10° 107° (ESE) 5,462 14.2 -52.0°
Sets 09:18:24 0° 106° (ESE) 6,139 14.7 -51.3°
